Regional Weather Roundup
Issued by NWS

Home | Current Version | Previous Version | Text Only | Print | Product List | Glossary Off
Versions: 1 2 3 4 5 6 7 8 9 10 11 12 13 14 15 16 17 18 19 20 21 22 23 24 25 26 27 28 29 30 31 32 33 34 35 36 37 38 39 40 41 42 43 44 45 46 47 48 49 50

952
ASUS43 KMKX 242120
RWRWI

WISCONSIN REGIONAL WEATHER ROUNDUP
NATIONAL WEATHER SERVICE MILWAUKEE/SULLIVAN WI
300 PM CST FRI NOV 24 2017

NOTE: "FAIR" INDICATES FEW OR NO CLOUDS BELOW 12,000 FEET WITH NO
SIGNIFICANT WEATHER AND/OR OBSTRUCTIONS TO VISIBILITY.

WIZ001-002-006>008-014>016-023>028-242200-
NORTHWEST WISCONSIN

CITY           SKY/WX    TMP DP  RH WIND       PRES   REMARKS
SUPERIOR ARPT  CLOUDY    44  41  89 W8        29.37R
ASHLAND        CLOUDY    45  42  89 W12       29.34R
HAYWARD        LGT RAIN  47  42  83 VRB3      29.35R
SIREN          LGT RAIN  48  42  81 NW9       29.38R
CUMBERLAND     DRIZZLE   46  41  81 W10       29.37R
RICE LAKE      CLOUDY    52  43  71 W8        29.37S
CHETEK         DRIZZLE   49  45  83 W5        29.36S
LADYSMITH      CLOUDY    53  41  65 W6        29.36S
EAU CLAIRE     CLOUDY    55  39  54 W6        29.37R
MENOMONIE      CLOUDY    56  40  56 W6        29.39R
NEW RICHMOND   LGT RAIN  52  42  68 W6        29.39R
OSCEOLA        LGT RAIN  52  44  73 W7        29.42R
$$

WIZ003>005-009-010-017-018-242200-
NORTH CENTRAL WISCONSIN

CITY           SKY/WX    TMP DP  RH WIND       PRES   REMARKS
MANITOWISH WTR RAIN      46  44  92 SW6       29.31R
ARBOR VITAE    MOSUNNY   52  40  64 W6        29.31R
WOODRUFF       MOSUNNY   52  40  64 W6        29.31R
RHINELANDER    CLOUDY    53  39  59 W10       29.32R
EAGLE RIVER    CLOUDY    51  36  57 W6        29.30R
LAND O LAKES   LGT RAIN  50  38  63 W6        29.30R
PHILLIPS       DRIZZLE   50  41  73 W3        29.32S
TOMAHAWK       CLOUDY    53  38  56 W8        29.33S
MEDFORD        CLOUDY    52  38  59 W12       29.35R
MERRILL        CLOUDY    54  39  57 W8        29.34R
$$

WIZ029-030-035-036-043>047-242200-
CENTRAL WISCONSIN

CITY           SKY/WX    TMP DP  RH WIND       PRES   REMARKS
WAUSAU         MOSUNNY   56  38  50 NW17G24   29.32R
MOSINEE        MOSUNNY   57  39  51 W14G24    29.34R
MARSHFIELD     SUNNY     59  38  45 W12       29.34R
STEVENS POINT  CLOUDY    60  38  43 W12G17    29.33R
WAUPACA        SUNNY     66  36  32 SW18G26   29.31R
WAUTOMA        SUNNY     64  38  38 SW16G25   29.32R
WISC RAPIDS    SUNNY     63  40  42 W12G21    29.34R
CAMP DOUGLAS   SUNNY     63  40  42 W13G26    29.35R
$$

WIZ011>013-019>022-031-037>040-048>050-242200-
NORTHEAST WISCONSIN

CITY           SKY/WX    TMP DP  RH WIND       PRES   REMARKS
ANTIGO         CLOUDY    53  38  55 W17G25    29.32R
SHAWANO        SUNNY     66  37  34 NW9       29.29R
OCONTO         PTCLDY    60  39  44 SW10G18   29.27R
STURGEON BAY   PTCLDY    49  40  71 S14       29.28R
GREEN BAY      SUNNY     61  40  45 SW16G23   29.29R
MANITOWOC      NOT AVBL
APPLETON       PTSUNNY   63  34  34 SW17      29.29R
CLINTONVILLE   SUNNY     64  36  34 W15G23    29.28R
OSHKOSH        SUNNY     62  39  42 SW20G31   29.29R
$$

WIZ032>034-041-042-053>061-242200-
SOUTHWEST WISCONSIN

CITY           SKY/WX    TMP DP  RH WIND       PRES   REMARKS
LA CROSSE      SUNNY     62  41  46 W13       29.38R
SPARTA         SUNNY     61  41  46 W14G20    29.38R
VIROQUA        SUNNY     60  42  51 W13       29.40R
BOSCOBEL       SUNNY     68  39  34 SW10G22   29.37R
PRAIRIE DU CHI SUNNY     65  37  34 W15G23    29.39R
PLATTEVILLE    SUNNY     67  42  39 SW15      29.38S
$$

WIZ056-057-062-063-064-067-068-242200-
SOUTH CENTRAL WISCONSIN

CITY           SKY/WX    TMP DP  RH WIND       PRES   REMARKS
REEDSBURG      SUNNY     64  40  41 W10G20    29.35R
BARABOO/DELLS  SUNNY     64  36  34 W13G20    29.34R
LONE ROCK      SUNNY     66  41  40 W14G23    29.36R
MINERAL POINT  SUNNY     68  37  32 SW16      29.37R
MADISON        MOSUNNY   64  38  38 S13G21    29.34F
MIDDLETON      SUNNY     67  36  32 SW14G24   29.35S
WATERTOWN      SUNNY     64  38  38 SW21G31   29.35F
MONROE         SUNNY     64  36  34 SW22G35   29.37F
JANESVILLE     SUNNY     66  36  32 S21G26    29.38F
$$

WIZ051-052-058>065-066-070>072-242200-
SOUTHEAST WISCONSIN

CITY           SKY/WX    TMP DP  RH WIND       PRES   REMARKS
MILWAUKEE      MOSUNNY   64  39  39 S18G25    29.38F
WAUKESHA       SUNNY     63  36  36 S18G30    29.38F
MILWAUKEE/TIMM SUNNY     64  32  29 SW20G28   29.37F
RACINE         SUNNY     64  38  38 S15G30    29.41F
BURLINGTON     SUNNY     66  44  45 S22G31    29.39F
KENOSHA        SUNNY     64  38  38 S23G37    29.41F
FOND DU LAC    SUNNY     64  36  35 SW18G31   29.29F
SHEBOYGAN      SUNNY     65  39  38 S21G31    29.29F
WEST BEND      SUNNY     63  34  34 S18G30    29.33F
JUNEAU         SUNNY     63  39  41 S23       29.35S
$$

LSZ147-162-242200-
LAKE SUPERIOR

STATION/POSITION TIME  TEMP    WIND        PRES    WAVE
                       AIR SEA DIR/SP/G            HT/PER
                 (UTC) (F)     (DEG/KT/KT) (MB)    (FT/S)
DEVILS ISLAND    2100   42     240/ 16/ 18  993.3R
SAXON HARBOR     2030   49     230/  5/  8  992.2R
$$

LMZ867-665-643>646-242200-
LAKE MICHIGAN

STATION/POSITION TIME  TEMP    WIND        PRES    WAVE
                       AIR SEA DIR/SP/G            HT/PER
                 (UTC) (F)     (DEG/KT/KT) (MB)    (FT/S)
N MID LAKE BUOY  2050   49 47  200/ 25/ 33  991.2R  12/ 9
NORTHPORT PIER   2040   47     180/  5/ 19  991.9R
KEWAUNEE LAKESHO 2054   44     180/ 15/ 19  990.6F
SHEBOYGAN LAKESH 2100   46     180/ 27/ 29  992.3F
PORT WASHINGTON  2040   58     200/ 12/ 16  994.9F
MILWAUKEE LAKESH 2100   59     180/ 16/ 17   N/A
S MID LAKE BUOY  2050   51 47  170/ 23/ 27  997.3F   6/ 6
KENOSHA   LAKESH 2100   64     200/ 15/ 23  996.3
$$

TC  - TEMPERATURE IN CELSIUS
VSB - VISIBILITY IN STATUTE MILES
WCI - WIND CHILL INDEX
HX  - HEAT INDEX





USA.gov is the U.S. government's official web portal to all federal, state and local government web resources and services.